ATLAS 5 CENTAUR DEB, 45473

Orbit data source: Space-Track

ATLAS 5 CENTAUR DEB, 45473 is space debris in HEO originally from a launch on Wed, 17 Oct 2018 UTC launched from the Air Force Eastern Test Range (AFETR). Debris objects in space refer to the collection of defunct objects orbiting the Earth. Examples of debris include non-operational satellites, rocket bodies, and fragments generated from explosions, collisions, or faulty payload assembly.

Loading next visibility...
Identifier
45473, 2018-079BV
Orbit
HEO
Country
Flag of USUS
Related business
Flag of USUnited Launch Alliance/Lockheed Martin (US)
Manufacturer
ULA Decatur
Mission
Spacecraft
Bus & Motor
Unknown
Mass
Unknown
Launch date (UTC)
2018-10-17 (7 years ago)
Launch vehicle
Unknown
Launch site
Air Force Eastern Test Range (AFETR)
Object type
Payload
Rocket body
Debris
Shape & HBR
Unknown shape, 1.1 m
Radar Cross Section
RCS unknown

Expand to show TLE details & history
Last TLE update: 1 day ago

TLE from 1 day ago
0 ATLAS 5 CENTAUR DEB
1 45473U 18079BV  25344.56735688 -.00000104  00000-0  00000-0 0  9990
2 45473  12.6307  82.0772 4602379 215.3112 102.9856  1.70632082 38490
Epoch: 2025-12-10T13:36Z
TLE epoch observation values (Epoch: 2025-12-10T13:36:59.634Z)
Latitude
0.00002°
Longitude
158.23732°
Altitude
30,981.64 km
Speed
2.804 km/s
True Right ascension
05h 28m 05s
True Declination
0° 00' 00"
Sunlit
Object was in daylight at epoch
Visualization orbit readout
Latitude
Unknown
Longitude
Unknown
Altitude
Unknown
Speed
Unknown
Apparent Right ascension
Unknown
Apparent Declination
Unknown
Sunlit
N/A
Visualization observer readout
Local Sidereal Time
13:42:16
Azimuth
Unknown
Elevation
Unknown
Doppler factor
Unknown
Orbital elements
Apogee altitude
36,821.582 km
Perigee altitude
9,590.2 km
Semi-major axis
29,584.028 km
Eccentricity
0.46024
Inclination
12.6307°
RAAN
82.0772°
Arg. of periapsis
215.3112°
True anomaly
144.64519°
Mean anomaly
102.9856°
Eccentric anomaly
124.67249°
Mean motion
0.42654 °/min
Orbital period
844.01 mins
BSTAR
0
Loading maneuver chart data...
Computing Atmospheric mass density...

Documentation

Showing up to 5 results
|